Previsão horária em Juliopol

Hoje, 22 Junho, Terça-feira

Tempo Temperatura Precipitação Vento Pressão Humidade
00:00 +21°C° 0 mm 3 m/s 749 mmHg 84%
01:00 +21°C° 0 mm 2 m/s 749 mmHg 87%
02:00 +20°C° 0 mm 2 m/s 749 mmHg 88%
03:00 +20°C° 0 mm 2 m/s 749 mmHg 89%
04:00 +20°C° 0 mm 2 m/s 750 mmHg 91%
05:00 +23°C° 0 mm 2 m/s 750 mmHg 85%
06:00 +24°C° 0 mm 2 m/s 750 mmHg 79%
07:00 +26°C° 0 mm 1 m/s 750 mmHg 73%
08:00 +27°C° 0 mm 1 m/s 750 mmHg 69%
09:00 +29°C° 0 mm 1 m/s 750 mmHg 64%
10:00 +30°C° 0 mm 1 m/s 751 mmHg 59%
11:00 +31°C° 0.2 mm 1 m/s 751 mmHg 56%
12:00 +31°C° 0.2 mm 1 m/s 751 mmHg 52%
13:00 +32°C° 0.2 mm 1 m/s 751 mmHg 49%
14:00 +32°C° 0 mm 2 m/s 751 mmHg 52%
15:00 +31°C° 0 mm 2 m/s 751 mmHg 55%
16:00 +31°C° 0 mm 2 m/s 751 mmHg 58%
17:00 +28°C° 1.1 mm 2 m/s 751 mmHg 67%
18:00 +26°C° 1.1 mm 3 m/s 751 mmHg 76%
19:00 +24°C° 1.1 mm 3 m/s 752 mmHg 85%
20:00 +23°C° 0.8 mm 2 m/s 752 mmHg 87%
21:00 +23°C° 0.8 mm 2 m/s 752 mmHg 90%
22:00 +21°C° 0.8 mm 2 m/s 753 mmHg 93%
23:00 +20°C° 0.4 mm 2 m/s 753 mmHg 94%

Amanhã, 23 Junho, Quarta-feira

Tempo Temperatura Precipitação Vento Pressão Humidade
00:00 +20°C° 0.4 mm 3 m/s 753 mmHg 94%
01:00 +20°C° 0.4 mm 3 m/s 753 mmHg 95%
02:00 +19°C° 0.1 mm 3 m/s 753 mmHg 95%
03:00 +19°C° 0.1 mm 3 m/s 754 mmHg 96%
04:00 +18°C° 0.1 mm 3 m/s 754 mmHg 96%
05:00 +19°C° 0 mm 3 m/s 754 mmHg 93%
06:00 +20°C° 0 mm 3 m/s 755 mmHg 90%
07:00 +20°C° 0 mm 3 m/s 755 mmHg 87%
08:00 +22°C° 0 mm 3 m/s 755 mmHg 81%
09:00 +24°C° 0 mm 3 m/s 755 mmHg 76%
10:00 +26°C° 0 mm 3 m/s 756 mmHg 70%
11:00 +27°C° 0 mm 3 m/s 756 mmHg 66%
12:00 +28°C° 0 mm 3 m/s 755 mmHg 63%
13:00 +29°C° 0 mm 3 m/s 755 mmHg 59%
14:00 +29°C° 0 mm 3 m/s 755 mmHg 60%
15:00 +29°C° 0 mm 3 m/s 755 mmHg 61%
16:00 +28°C° 0 mm 3 m/s 755 mmHg 62%
17:00 +27°C° 0.4 mm 3 m/s 755 mmHg 68%
18:00 +26°C° 0.4 mm 3 m/s 755 mmHg 75%
19:00 +25°C° 0.4 mm 3 m/s 755 mmHg 82%
20:00 +22°C° 2.1 mm 3 m/s 756 mmHg 86%
21:00 +21°C° 2.1 mm 3 m/s 756 mmHg 90%
22:00 +20°C° 2.1 mm 2 m/s 756 mmHg 94%
23:00 +20°C° 0.8 mm 2 m/s 756 mmHg 95%

Depois de amanhã, 24 Junho, Quinta-feira

Tempo Temperatura Precipitação Vento Pressão Humidade
00:00 +19°C° 0.8 mm 2 m/s 756 mmHg 96%
01:00 +19°C° 0.8 mm 2 m/s 756 mmHg 97%
02:00 +19°C° 0 mm 2 m/s 756 mmHg 97%
03:00 +19°C° 0 mm 2 m/s 756 mmHg 97%
04:00 +19°C° 0 mm 2 m/s 756 mmHg 97%
05:00 +19°C° 0 mm 2 m/s 756 mmHg 93%
06:00 +20°C° 0 mm 3 m/s 756 mmHg 90%
07:00 +21°C° 0 mm 3 m/s 756 mmHg 86%
08:00 +22°C° 0 mm 3 m/s 756 mmHg 81%
09:00 +24°C° 0 mm 2 m/s 756 mmHg 76%
10:00 +26°C° 0 mm 2 m/s 756 mmHg 70%
11:00 +27°C° 0 mm 2 m/s 756 mmHg 67%
12:00 +27°C° 0 mm 2 m/s 756 mmHg 65%
13:00 +28°C° 0 mm 2 m/s 756 mmHg 62%
14:00 +28°C° 0 mm 2 m/s 755 mmHg 63%
15:00 +28°C° 0 mm 2 m/s 755 mmHg 64%
16:00 +28°C° 0 mm 2 m/s 755 mmHg 64%
17:00 +27°C° 0 mm 2 m/s 755 mmHg 69%
18:00 +27°C° 0 mm 2 m/s 754 mmHg 73%
19:00 +26°C° 0 mm 3 m/s 754 mmHg 77%
20:00 +25°C° 0.1 mm 3 m/s 754 mmHg 81%
21:00 +22°C° 0.1 mm 3 m/s 754 mmHg 85%
22:00 +21°C° 0.1 mm 3 m/s 754 mmHg 89%
23:00 +21°C° 0.3 mm 3 m/s 753 mmHg 90%

25 Junho, Sexta-feira

Tempo Temperatura Precipitação Vento Pressão Humidade
00:00 +21°C° 0.3 mm 3 m/s 753 mmHg 92%
01:00 +21°C° 0.3 mm 4 m/s 752 mmHg 94%
02:00 +21°C° 6.2 mm 4 m/s 752 mmHg 94%
03:00 +21°C° 6.2 mm 4 m/s 751 mmHg 94%
04:00 +20°C° 6.2 mm 4 m/s 751 mmHg 94%
05:00 +21°C° 0.2 mm 3 m/s 751 mmHg 92%
06:00 +22°C° 0.2 mm 3 m/s 751 mmHg 90%
07:00 +24°C° 0.2 mm 2 m/s 751 mmHg 88%
08:00 +25°C° 0 mm 3 m/s 751 mmHg 82%
09:00 +25°C° 0 mm 4 m/s 751 mmHg 77%
10:00 +26°C° 0 mm 5 m/s 752 mmHg 71%
11:00 +26°C° 0 mm 5 m/s 752 mmHg 72%
12:00 +25°C° 0 mm 5 m/s 752 mmHg 72%
13:00 +25°C° 0 mm 5 m/s 753 mmHg 73%
14:00 +23°C° 0 mm 6 m/s 753 mmHg 74%
15:00 +22°C° 0 mm 6 m/s 753 mmHg 75%
16:00 +21°C° 0 mm 6 m/s 754 mmHg 76%
17:00 +21°C° 0 mm 5 m/s 754 mmHg 77%
18:00 +20°C° 0 mm 5 m/s 754 mmHg 78%
19:00 +20°C° 0 mm 4 m/s 754 mmHg 79%
20:00 +18°C° 0 mm 4 m/s 754 mmHg 83%
21:00 +17°C° 0 mm 4 m/s 754 mmHg 87%
22:00 +16°C° 0 mm 3 m/s 754 mmHg 90%
23:00 +16°C° 0 mm 3 m/s 755 mmHg 92%

26 Junho, Sábado

Tempo Temperatura Precipitação Vento Pressão Humidade
00:00 +14°C° 0 mm 3 m/s 755 mmHg 94%
01:00 +14°C° 0 mm 3 m/s 755 mmHg 97%
02:00 +14°C° 0 mm 3 m/s 755 mmHg 97%
03:00 +14°C° 0 mm 3 m/s 755 mmHg 97%
04:00 +14°C° 0 mm 3 m/s 755 mmHg 97%
05:00 +16°C° 0 mm 3 m/s 755 mmHg 91%
06:00 +17°C° 0 mm 4 m/s 756 mmHg 85%
07:00 +19°C° 0 mm 4 m/s 756 mmHg 79%
08:00 +20°C° 0 mm 5 m/s 756 mmHg 74%
09:00 +21°C° 0 mm 5 m/s 756 mmHg 70%
10:00 +22°C° 0 mm 5 m/s 756 mmHg 65%
11:00 +23°C° 0.1 mm 5 m/s 756 mmHg 64%
12:00 +23°C° 0.1 mm 5 m/s 756 mmHg 62%
13:00 +25°C° 0.1 mm 5 m/s 756 mmHg 61%
14:00 +25°C° 0 mm 5 m/s 756 mmHg 61%
15:00 +25°C° 0 mm 4 m/s 756 mmHg 61%
16:00 +24°C° 0 mm 3 m/s 755 mmHg 62%
17:00 +24°C° 0 mm 3 m/s 755 mmHg 66%
18:00 +23°C° 0 mm 2 m/s 755 mmHg 71%
19:00 +21°C° 0 mm 2 m/s 755 mmHg 76%
20:00 +20°C° 0 mm 2 m/s 755 mmHg 80%
21:00 +19°C° 0 mm 2 m/s 756 mmHg 83%
22:00 +18°C° 0 mm 2 m/s 756 mmHg 87%
23:00 +17°C° 0 mm 2 m/s 756 mmHg 89%

27 Junho, Domingo

Tempo Temperatura Precipitação Vento Pressão Humidade
00:00 +17°C° 0 mm 2 m/s 756 mmHg 90%
01:00 +16°C° 0 mm 1 m/s 756 mmHg 92%
02:00 +16°C° 0 mm 1 m/s 756 mmHg 92%
03:00 +16°C° 0 mm 1 m/s 756 mmHg 93%
04:00 +16°C° 0 mm 1 m/s 756 mmHg 93%
05:00 +18°C° 0 mm 1 m/s 756 mmHg 89%
06:00 +20°C° 0 mm 1 m/s 756 mmHg 84%
07:00 +21°C° 0 mm 1 m/s 756 mmHg 79%
08:00 +21°C° 0.1 mm 2 m/s 756 mmHg 75%
09:00 +23°C° 0.1 mm 2 m/s 756 mmHg 70%
10:00 +24°C° 0.1 mm 2 m/s 756 mmHg 66%
11:00 +24°C° 0.4 mm 2 m/s 756 mmHg 65%
12:00 +24°C° 0.4 mm 2 m/s 756 mmHg 65%
13:00 +24°C° 0.4 mm 1 m/s 756 mmHg 64%
14:00 +25°C° 0.3 mm 1 m/s 756 mmHg 63%
15:00 +25°C° 0.3 mm 1 m/s 756 mmHg 62%
16:00 +25°C° 0.3 mm 1 m/s 756 mmHg 61%
17:00 +24°C° 0.2 mm 1 m/s 756 mmHg 66%
18:00 +23°C° 0.2 mm 1 m/s 756 mmHg 70%
19:00 +22°C° 0.2 mm 1 m/s 756 mmHg 74%
20:00 +21°C° 0 mm 1 m/s 756 mmHg 77%
21:00 +20°C° 0 mm 1 m/s 756 mmHg 79%
22:00 +19°C° 0 mm 1 m/s 756 mmHg 82%
23:00 +19°C° 0 mm 1 m/s 756 mmHg 83%
Mostrar mais

Necessitamos do seu Consentimento

A Meteoprog e os seus Fornecedores de Serviços podem armazenar e aceder a dados pessoais como cookies, identificadores do dispositivo ou outras tecnologias semelhantes existentes no seu dispositivo e processar estes dados para personalizar conteúdos e anúncios, assim como funcionalidades nas redes sociais e análise de tráfego.

  • Armazenar e/ou aceder a informações no seu dispositivo

    Os cookies, identificadores do dispositivo ou outras informações podem ser armazenados ou acedidos no seu dispositivo, para os fins acima indicados.

  • Anúncios e conteúdos personalizados, medição de anúncios e conteúdos, dados sobre o público-alvo e desenvolvimento de produtos

    Os anúncios e os conteúdos podem ser personalizados com base num perfil. Podem ser adicionados dados adicionais para uma maior personalização dos anúncios e dos conteúdos. A eficácia dos anúncios e dos conteúdos pode ser medida. Podem ser obtidas informações sobre o público que visualizou os anúncios e os conteúdos. Estes dados podem ser usados para desenvolver ou melhorar sistemas, softwares ou a experiência do utilizador.

Ao clicar em "Eu concordo”, permitirá o uso de cookies, identificadores do dispositivo e web beacons mencionados ou outras tecnologias semelhantes. As configurações do navegador do seu dispositivo podem ser alteradas.

Para certos fins, podem ser invocados interesses legítimos ao invés de consentimento. Pode ler mais informação sobre este assunto na nossa Política de Privacidade e Cookies.